Printer-friendly version

IAU Minor Planet Center

Minor Planet Center

MPEC 2007-W02 : 2007 VB191

The following Minor Planet Electronic Circular may be linked-to from your own Web pages, but must not otherwise be redistributed electronically.


Read MPEC 2007-W01 Read MPEC 2007-W03


M.P.E.C. 2007-W02                                Issued 2007 Nov. 16, 14:49 UT

     The Minor Planet Electronic Circulars contain information on unusual
         minor planets and routine data on comets.  They are published
   on behalf of Commission 20 of the International Astronomical Union by the
          Minor Planet Center, Smithsonian Astrophysical Observatory,
                          Cambridge, MA 02138, U.S.A.

             Prepared using the Tamkin Foundation Computer Network

                              MPC@CFA.HARVARD.EDU
          URL http://www.cfa.harvard.edu/iau/mpc.html  ISSN 1523-6714

                                  2007 VB191

Observations:
     K07VJ1B* C2007 11 14.26541 03 06 14.20 +14 46 25.9          20.8   EW002704
     K07VJ1B  C2007 11 14.27789 03 06 18.16 +14 47 14.3          20.1   EW002704
     K07VJ1B  C2007 11 14.29040 03 06 22.11 +14 48 01.7          20.3   EW002704
     K07VJ1B  C2007 11 14.30290 03 06 26.14 +14 48 46.4          20.5   EW002704
     K07VJ1B  C2007 11 15.25699 03 12 57.25 +15 55 47.9          19.4   EW002704
     K07VJ1B  C2007 11 15.28253 03 13 07.36 +15 57 45.6          20.6   EW002704
     K07VJ1B  C2007 11 15.29542 03 13 12.73 +15 58 45.0          20.5   EW002704
     K07VJ1B  C2007 11 15.30813 03 13 17.75 +15 59 44.5          20.4   EW002704
     K07VJ1B  C2007 11 16.31453 03 21 48.91 +17 25 55.0          19.5 R EW002850
     K07VJ1B  C2007 11 16.33105 03 21 57.62 +17 27 27.6          19.3 R EW002850
     K07VJ1B  C2007 11 16.34751 03 22 06.39 +17 28 59.3          19.2 R EW002850

Observer details:
704 Lincoln Laboratory ETS, New Mexico.  Observers M. Bezpalko, D. Torres,
    R. Kracke, G. Spitz, J. Kistler.  Measurers J. Stuart, S. Scruggs.  1.0-m
    f/2.15 reflector + CCD.
850 Cordell-Lorenz Observatory, Sewanee.  Observers D. T. Durig,
    E. M. Utermohlen, D. L. Trompeter.  0.30-m f/3 Schmidt-Cassegrain
    + 765x510 CCD.

Orbital elements:
2007 VB191                                               Earth MOID = 0.0091 AU
Epoch 2007 Oct. 27.0 TT = JDT 2454400.5                 MPC
M 344.25175              (2000.0)            P               Q
n   0.27787957     Peri.   46.23061     -0.18490866     -0.98189228
a   2.3257604      Node    54.46911     +0.88649941     -0.18474020
e   0.6056654      Incl.    2.90099     +0.42417872     -0.04193589
P   3.55           H   25.5           G   0.15
From 10 observations 2007 Nov. 14-16.

Ephemeris:
2007 VB191               a,e,i = 2.33, 0.61, 3                   q = 0.9171
Date    TT    R. A. (2000) Decl.     Delta      r     Elong.  Phase     V
2007 11 16    03 18.99   +16 57.9    0.0568   1.046   178.2     1.7    19.6
2007 11 17    03 29.03   +18 36.6    0.0507   1.040   179.5     0.5    19.2
2007 11 18    03 42.05   +20 38.9    0.0448   1.033   177.0     2.9    19.1
2007 11 19    03 59.42   +23 11.6    0.0392   1.027   173.2     6.6    19.0
2007 11 20    04 23.39   +26 21.6    0.0339   1.021   167.8    11.8    18.9
2007 11 21    04 57.57   +30 10.8    0.0292   1.016   160.3    19.1    18.8
2007 11 22    05 47.16   +34 19.9    0.0254   1.010   150.0    29.3    18.8
2007 11 23    06 56.62   +37 37.0    0.0229   1.004   136.5    42.6    19.0
2007 11 24    08 20.81   +38 02.1    0.0221   0.999   120.9    58.0    19.3
2007 11 25    09 40.70   +34 51.9    0.0232   0.994   105.5    73.2    19.9
2007 11 26    10 41.94   +29 49.9    0.0260   0.989    92.6    85.9    20.6
2007 11 27    11 24.66   +24 49.7    0.0299   0.984    82.9    95.4    21.3
2007 11 28    11 54.31   +20 36.9    0.0347   0.979    75.8   102.2    21.9
2007 11 29    12 15.47   +17 15.0    0.0399   0.974    70.7   107.0    22.4
2007 11 30    12 31.13   +14 35.2    0.0454   0.970    67.1   110.4    22.9
2007 12 01    12 43.11   +12 27.6    0.0512   0.965    64.5   112.8    23.3
2007 12 02    12 52.57   +10 44.2    0.0571   0.961    62.6   114.4    23.6
2007 12 03    13 00.22   +09 19.0    0.0632   0.957    61.2   115.5    23.9
2007 12 04    13 06.55   +08 07.6    0.0693   0.953    60.2   116.2    24.2
2007 12 05    13 11.90   +07 06.9    0.0755   0.950    59.5   116.5    24.4
2007 12 06    13 16.49   +06 14.6    0.0817   0.946    59.1   116.7    24.5

Timothy B. Spahr             (C) Copyright 2007 MPC           M.P.E.C. 2007-W02

Read MPEC 2007-W01 Read MPEC 2007-W03


Our Web policy. Index to the CBAT/MPC/ICQ pages.


Valid HTML 4.01!